Flag for Germany Weather past 2 weeks in Reutlingen, Baden-Württemberg, Germany

Now
48 °F

Clear.


Feels Like: 48 °F
Forecast: 42 / 70 °F
Wind: 1 mph from North

Location: Stuttgart-Echterdingen


UV Index: 3 (Moderate)

Visibility: 10 mi


Pressure: 29.65 "Hg

Humidity: 71%

Dew point: 39 °F

Location of ReutlingenLocation

Historic Weather in Reutlingen

°F

Reutlingen temperature yesterday

Maximum temperature yesterday: 64 °F (at 4:20 PM)
Minimum temperature yesterday: 45 °F (at 3:20 AM)
Average temperature yesterday: 54 °F

Past Weeks' High & Low Weather Summary

 TemperatureHumidityPressure
High70 °F (Apr 7, 2:20 PM)100% (Apr 19, 3:50 AM)30.36 "Hg (Apr 19, 3:50 AM)
Low32 °F (Apr 16, 6:20 AM)21% (Apr 17, 5:20 PM)29.65 "Hg (Apr 20, 4:50 PM)
Average51 °F63%30.06 "Hg
* Reported Apr 6 2:20 AM — Apr 21 2:20 AM, Reutlingen, Weather by CustomWeather, © 2014

Note: Actual official high and low records may vary slightly from our data, if they occured in-between our weather recording intervals... More about our weather records

Advertising

Historic Weather Conditions — Data for Previous 24 hours

 ConditionsComfort  
Time TempWeatherWind HumidityBarometerVisibility
2:20 AM
Apr 21
46 °FClear.1 mph76%29.68 "Hg10 mi
1:50 AM50 °FClear.3 mph67%29.68 "Hg10 mi
1:20 AM46 °FClear.1 mph76%29.68 "Hg10 mi
12:50 AM48 °FClear.1 mph71%29.68 "Hg10 mi
12:20 AM50 °FClear.1 mph67%29.68 "Hg10 mi
11:50 PM
Apr 20
50 °FClear.2 mph67%29.68 "Hg10 mi
11:20 PM50 °FClear.2 mph71%29.68 "Hg10 mi
10:50 PM50 °FClear.5 mph67%29.68 "Hg10 mi
10:20 PM52 °FClear.7 mph67%29.68 "Hg10 mi
9:50 PM52 °FClear.7 mph67%29.68 "Hg10 mi
9:20 PM54 °FSunny.5 mph63%29.68 "Hg10 mi
8:50 PM54 °FSunny.6 mph67%29.68 "Hg10 mi
8:20 PM55 °FSunny.3 mph59%29.68 "Hg10 mi
7:50 PM59 °FSunny.3 mph51%29.65 "Hg10 mi
7:20 PM61 °FSunny.8 mph45%29.65 "Hg10 mi
6:50 PM63 °FSunny.8 mph42%29.65 "Hg10 mi
6:20 PM63 °FSunny.8 mph42%29.65 "Hg10 mi
5:50 PM63 °FSunny.6 mph42%29.65 "Hg10 mi
5:20 PM63 °FSunny.13 mph42%29.65 "Hg10 mi
4:50 PM64 °FSunny.8 mph43%29.65 "Hg10 mi
4:20 PM64 °FSunny.12 mph43%29.68 "Hg10 mi
3:50 PM63 °FPartly sunny.9 mph45%29.68 "HgN/A
3:20 PM63 °FPartly sunny.9 mph45%29.68 "HgN/A
2:50 PM63 °FPartly sunny.8 mph49%29.68 "HgN/A
2:20 PM63 °FBroken clouds.8 mph49%29.68 "HgN/A
1:50 PM61 °FScattered clouds.6 mph52%29.68 "HgN/A
1:20 PM61 °FScattered clouds.6 mph52%29.71 "HgN/A
12:50 PM59 °FScattered clouds.7 mph55%29.71 "HgN/A
12:20 PM59 °FScattered clouds.6 mph59%29.71 "HgN/A
11:50 AM57 °FScattered clouds.6 mph63%29.71 "HgN/A
11:20 AM57 °FPassing clouds.8 mph72%29.71 "HgN/A
10:50 AM57 °FPassing clouds.9 mph67%29.71 "HgN/A
10:20 AM57 °FPassing clouds.6 mph72%29.71 "HgN/A
9:50 AM54 °FPassing clouds.5 mph82%29.71 "HgN/A
9:20 AM52 °FSunny.2 mph82%29.71 "Hg10 mi
8:50 AM48 °FSunny.2 mph87%29.71 "Hg10 mi
8:20 AM46 °FSunny.2 mph93%29.71 "Hg10 mi
7:50 AM46 °FSunny.2 mph87%29.71 "Hg10 mi
7:20 AM46 °FFog.3 mph87%29.71 "HgN/A
6:50 AM45 °FPassing clouds.1 mph93%29.71 "HgN/A
6:20 AM45 °FPassing clouds.6 mph87%29.71 "HgN/A
5:50 AM45 °FPassing clouds.1 mph93%29.71 "HgN/A
5:20 AM45 °FPassing clouds.3 mph87%29.71 "HgN/A
4:50 AM46 °FPassing clouds.3 mph87%29.71 "HgN/A
4:20 AM46 °FClear.2 mph87%29.71 "Hg10 mi
3:50 AM48 °FClear.7 mph82%29.71 "Hg10 mi
3:20 AM45 °FClear.7 mph93%29.74 "Hg10 mi
Weather by CustomWeather, © 2014

See weather overview